| time (UTC) | temp F | wind direction | speed MPH | gust MPH | rain 1hr in | rain 24hr in | rain mn in | humidity % | barometer mb |
| 20260504040016 | 49 | 180 | 1.0 | 1.0 | 0.00 | 0.00 | 0.00 | 57 | 1003.4 |
| 20260504035017 | 49 | 203 | 1.0 | 1.0 | 0.00 | 0.00 | 0.00 | 59 | 1003.5 |
| 20260504034016 | 50 | 203 | 1.0 | 2.0 | 0.00 | 0.00 | 0.00 | 56 | 1003.7 |
| 20260504033017 | 51 | 0.0 | 0.0 | 0.00 | 0.00 | 0.00 | 55 | 1003.9 | |
| 20260504032037 | 51 | 0.0 | 0.0 | 0.00 | 0.00 | 0.00 | 54 | 1004.1 | |
| 20260504031016 | 51 | 0.0 | 0.0 | 0.00 | 0.00 | 0.00 | 54 | 1004.2 | |
| 20260504030016 | 52 | 0.0 | 0.0 | 0.00 | 0.00 | 0.00 | 52 | 1004.2 | |
| 20260504025017 | 52 | 0.0 | 0.0 | 0.00 | 0.00 | 0.00 | 50 | 1004.1 | |
| 20260504024016 | 53 | 0.0 | 1.0 | 0.00 | 0.00 | 0.00 | 49 | 1004.2 | |
| 20260504023017 | 54 | 0.0 | 1.0 | 0.00 | 0.00 | 0.00 | 47 | 1004.2 | |
| 20260504022016 | 55 | 180 | 1.0 | 2.0 | 0.00 | 0.00 | 0.00 | 46 | 1004.2 |
| 20260504021016 | 57 | 270 | 1.0 | 3.0 | 0.00 | 0.00 | 0.00 | 43 | 1004.3 |
| 20260504020017 | 59 | 0.0 | 2.0 | 0.00 | 0.00 | 0.00 | 40 | 1004.5 | |
| 20260504015016 | 62 | 270 | 1.0 | 2.0 | 0.00 | 0.00 | 0.00 | 35 | 1004.5 |
| 20260504014016 | 64 | 270 | 1.0 | 2.0 | 0.00 | 0.00 | 0.00 | 33 | 1004.8 |
| 20260504013056 | 64 | 270 | 1.0 | 2.0 | 0.00 | 0.00 | 0.00 | 33 | 1004.8 |
| 20260504012016 | 65 | 270 | 1.0 | 2.0 | 0.00 | 0.00 | 0.00 | 32 | 1004.8 |
| 20260504011016 | 66 | 270 | 3.0 | 4.0 | 0.00 | 0.00 | 0.00 | 31 | 1004.8 |
| 20260504010016 | 66 | 293 | 4.0 | 6.0 | 0.00 | 0.00 | 0.00 | 30 | 1004.8 |
| 20260504005016 | 67 | 0 | 7.0 | 10.0 | 0.00 | 0.00 | 0.00 | 29 | 1004.8 |
| 20260504004016 | 68 | 293 | 7.0 | 10.0 | 0.00 | 0.00 | 0.00 | 29 | 1004.7 |
| 20260504003016 | 69 | 0 | 5.0 | 8.0 | 0.00 | 0.00 | 0.00 | 28 | 1004.8 |
| 20260504002016 | 69 | 293 | 7.0 | 10.0 | 0.00 | 0.00 | 0.00 | 27 | 1005.0 |
| 20260504001016 | 70 | 293 | 7.0 | 9.0 | 0.00 | 0.00 | 0.00 | 26 | 1005.0 |
| 20260504000016 | 70 | 293 | 9.0 | 17.0 | 0.00 | 0.00 | 0.00 | 26 | 1005.1 |
| 20260503235016 | 70 | 293 | 10.0 | 14.0 | 0.00 | 0.00 | 0.00 | 26 | 1005.1 |
| 20260503234016 | 71 | 315 | 9.0 | 15.0 | 0.00 | 0.00 | 0.00 | 26 | 1005.2 |
| 20260503233116 | 71 | 315 | 11.0 | 15.0 | 0.00 | 0.00 | 0.00 | 25 | 1005.2 |
| 20260503232016 | 71 | 315 | 9.0 | 13.0 | 0.00 | 0.00 | 0.00 | 27 | 1005.3 |
| 20260503231016 | 70 | 315 | 7.0 | 12.0 | 0.00 | 0.00 | 0.00 | 26 | 1005.3 |
| 20260503230016 | 71 | 315 | 9.0 | 14.0 | 0.00 | 0.00 | 0.00 | 25 | 1005.4 |
| 20260503225016 | 71 | 315 | 8.0 | 12.0 | 0.00 | 0.00 | 0.00 | 25 | 1005.5 |
| 20260503224016 | 71 | 315 | 9.0 | 13.0 | 0.00 | 0.00 | 0.00 | 24 | 1005.6 |
| 20260503223016 | 72 | 315 | 11.0 | 14.0 | 0.00 | 0.00 | 0.00 | 24 | 1005.5 |
| 20260503222016 | 72 | 315 | 11.0 | 16.0 | 0.00 | 0.00 | 0.00 | 24 | 1005.5 |
| 20260503221016 | 72 | 338 | 10.0 | 15.0 | 0.00 | 0.00 | 0.00 | 24 | 1005.5 |
| 20260503220016 | 71 | 315 | 11.0 | 16.0 | 0.00 | 0.00 | 0.00 | 24 | 1005.5 |
| 20260503215016 | 72 | 315 | 11.0 | 18.0 | 0.00 | 0.00 | 0.00 | 24 | 1005.7 |
| 20260503214016 | 72 | 293 | 6.0 | 12.0 | 0.00 | 0.00 | 0.00 | 25 | 1005.5 |
| 20260503213016 | 72 | 0 | 9.0 | 13.0 | 0.00 | 0.00 | 0.00 | 24 | 1005.6 |
| 20260503212016 | 72 | 293 | 10.0 | 16.0 | 0.00 | 0.00 | 0.00 | 25 | 1005.9 |
| 20260503211016 | 72 | 315 | 11.0 | 18.0 | 0.00 | 0.00 | 0.00 | 24 | 1006.0 |
| 20260503210016 | 71 | 315 | 10.0 | 16.0 | 0.00 | 0.00 | 0.00 | 27 | 1006.0 |
| 20260503205016 | 71 | 315 | 10.0 | 18.0 | 0.00 | 0.00 | 0.00 | 27 | 1006.2 |
| 20260503204036 | 71 | 315 | 12.0 | 20.0 | 0.00 | 0.00 | 0.00 | 28 | 1006.5 |
| 20260503203016 | 71 | 0 | 11.0 | 17.0 | 0.00 | 0.00 | 0.00 | 27 | 1006.5 |
| 20260503202016 | 71 | 0 | 11.0 | 19.0 | 0.00 | 0.00 | 0.00 | 26 | 1006.5 |
| 20260503201016 | 70 | 315 | 10.0 | 15.0 | 0.00 | 0.00 | 0.00 | 28 | 1006.8 |
| 20260503200016 | 71 | 338 | 11.0 | 18.0 | 0.00 | 0.00 | 0.00 | 26 | 1006.9 |
| 20260503195015 | 70 | 338 | 14.0 | 18.0 | 0.00 | 0.00 | 0.00 | 28 | 1007.2 |
| 20260503194016 | 70 | 0 | 12.0 | 18.0 | 0.00 | 0.00 | 0.00 | 28 | 1007.0 |
| 20260503193016 | 70 | 338 | 14.0 | 20.0 | 0.00 | 0.00 | 0.00 | 28 | 1007.1 |
| 20260503192015 | 70 | 315 | 12.0 | 18.0 | 0.00 | 0.00 | 0.00 | 29 | 1007.1 |
| 20260503191016 | 70 | 338 | 14.0 | 20.0 | 0.00 | 0.00 | 0.00 | 29 | 1007.1 |
| 20260503190015 | 70 | 338 | 9.0 | 16.0 | 0.00 | 0.00 | 0.00 | 30 | 1007.2 |
| 20260503185016 | 70 | 315 | 10.0 | 14.0 | 0.00 | 0.00 | 0.00 | 29 | 1007.4 |
| 20260503184036 | 69 | 338 | 14.0 | 19.0 | 0.00 | 0.00 | 0.00 | 29 | 1007.4 |
| 20260503183015 | 69 | 338 | 12.0 | 17.0 | 0.00 | 0.00 | 0.00 | 29 | 1007.5 |
| 20260503182016 | 68 | 338 | 14.0 | 21.0 | 0.00 | 0.00 | 0.00 | 28 | 1007.7 |
| 20260503181015 | 69 | 338 | 12.0 | 25.0 | 0.00 | 0.00 | 0.00 | 29 | 1007.8 |
| 20260503180016 | 69 | 338 | 11.0 | 16.0 | 0.00 | 0.00 | 0.00 | 32 | 1007.8 |
| 20260503175035 | 69 | 0 | 11.0 | 17.0 | 0.00 | 0.00 | 0.00 | 32 | 1007.9 |
| 20260503174015 | 68 | 315 | 12.0 | 20.0 | 0.00 | 0.00 | 0.00 | 32 | 1007.9 |
| 20260503173016 | 68 | 338 | 10.0 | 15.0 | 0.00 | 0.00 | 0.00 | 35 | 1008.1 |
| 20260503172015 | 68 | 338 | 11.0 | 15.0 | 0.00 | 0.00 | 0.00 | 34 | 1008.2 |
| 20260503171015 | 68 | 338 | 11.0 | 15.0 | 0.00 | 0.00 | 0.00 | 36 | 1008.2 |
| 20260503131017 | 54 | 0 | 6.0 | 9.0 | 0.00 | 0.00 | 0.00 | 57 | 1006.8 |
| 20260503081016 | 56 | 203 | 10.0 | 15.0 | 0.00 | 0.00 | 0.00 | 43 | 1006.6 |
| 20260503072016 | 57 | 158 | 8.0 | 12.0 | 0.00 | 0.00 | 0.00 | 43 | 1007.1 |
| 20260503071016 | 57 | 135 | 5.0 | 8.0 | 0.00 | 0.00 | 0.00 | 44 | 1007.3 |
| 20260503055016 | 60 | 225 | 8.0 | 13.0 | 0.00 | 0.00 | 0.00 | 38 | 1009.1 |
| 20260503054016 | 60 | 225 | 7.0 | 12.0 | 0.00 | 0.00 | 0.00 | 39 | 1009.4 |
| 20260503053016 | 60 | 225 | 8.0 | 12.0 | 0.00 | 0.00 | 0.00 | 39 | 1009.3 |
| 20260503052016 | 60 | 225 | 6.0 | 9.0 | 0.00 | 0.00 | 0.00 | 43 | 1009.2 |
| 20260503051056 | 60 | 225 | 5.0 | 8.0 | 0.00 | 0.00 | 0.00 | 41 | 1009.1 |
| 20260503050016 | 62 | 225 | 9.0 | 14.0 | 0.00 | 0.00 | 0.00 | 37 | 1009.3 |
| 20260503045017 | 61 | 225 | 6.0 | 10.0 | 0.00 | 0.00 | 0.00 | 39 | 1009.8 |
| 20260503044017 | 62 | 225 | 5.0 | 8.0 | 0.00 | 0.00 | 0.00 | 36 | 1010.2 |
| 20260503043017 | 62 | 225 | 10.0 | 14.0 | 0.00 | 0.00 | 0.00 | 35 | 1010.1 |
| 20260503042017 | 62 | 248 | 5.0 | 12.0 | 0.00 | 0.00 | 0.00 | 37 | 1009.9 |
| 20260503041057 | 61 | 225 | 7.0 | 12.0 | 0.00 | 0.00 | 0.00 | 39 | 1010.0 |